LiveATC.Net - Listen to live air traffic control over the Internet!


ICAO: WMSA  IATA: SZB   Airport: Sultan Abdul Aziz Shah Airport
City: Subang
Country: Malaysia   Continent: Asia
WMSA METAR Weather: WMSA 260300Z VRB03KT 9999 FEW018 31/24 Q1011
WMSA Flight Activity (FlightAware)

WMSA Del/Gnd/Twr/App
Feed Status: UP   Listeners: 0
Listen in your browser - HTML5 player (in browser, HTML5)
Click here to listen with your own player (launches your MP3 player)
Archive Access: WMSA Del/Gnd/Twr/App
FacilityFrequency
Lumpur Approach119.450
Lumpur Director124.200
Subang Clearance Delivery126.000
Subang Ground121.900
Subang Tower118.200

NOTICE

Unauthorized use prohibited. See LiveATC.net Terms of Service


Airport/ARTCC Code
Frequency Search
(e.g., 124.400, 128.75)
Site-wide search
 


Browse Feeds
Top 50 Feeds
Coverage Map
Bad Weather Areas

LiveATC FAQ
Offer LiveATC feed
Contact LiveATC.net
Press Inquiries

LiveATC on iPhone
LiveATC on Android

Windows Phone
Windows 8/10

LiveATC Mobile
(Mobile browser)

ATC Audio Archives
Interesting Recordings

LiveATC Forums


Home Page
About LiveATC.net
Make a Donation
Terms of Use
Privacy Policy

Canadian Air Freqs

AIRMETs/SIGMETs

FAA Airport Status
Nat'l Airspace Status
Arrival Demand Charts


Server Software By:
Icecast.org
Liquidsoap